カタログに戻る

LEMUR 2 PETER

Lost科学LEO
NORAD 40935·PAYLOAD·🇺🇸 United States

打ち上げ Sep 28, 2015 から Satish Dhawan Space Centre

Loading…

次のパス (今後24時間)

TLE

古いSource: Space-Track

元期: Jan 6, 2024, 08:13 UTC

1 40935U 15052F   24006.34278325  .00004647  00000-0  47851-3 0  9999
2 40935   6.0047  44.3862 0010558 341.6801  18.2947 14.82800071447703

AllMySatでLEMUR 2 PETERをリアルタイム追跡

Download on the App Store